Marianna, FL

8:41 PM CDT on March 25, 2017 (GMT -0500)
Marianna Municipal

Weather History for KMAI - June, 2013

Change the Weather History Date:

Friday, June 28, 2013

  Actual Average Record
Temperature  
Mean Temperature 80 °F 81 °F  
Max Temperature 89 °F 92 °F 100 °F (1998)
Min Temperature 71 °F 71 °F 63 °F (2012)
Degree Days  
Heating Degree Days 0    
Month to date heating degree days 0  
Since 1 June heating degree days 0  
Since 1 July heating degree days 1377  
Cooling Degree Days 15    
Month to date cooling degree days 404  
Year to date cooling degree days 840  
Since 1 June cooling degree days 404  
Growing Degree Days 29 (Base 50)    
Moisture  
Dew Point 75 °F    
Average Humidity 84    
Maximum Humidity 100    
Minimum Humidity 68    
Precipitation  
Precipitation 0.20 in 0.18 in 1.36 in (2015)
Month to date precipitation 3.64 5.21  
Year to date precipitation 24.54 27.43  
Sea Level Pressure  
Sea Level Pressure 29.86 in    
Wind  
Wind Speed 8 mph (SW)    
Max Wind Speed 31 mph    
Max Gust Speed 40 mph    
Visibility 10 miles    
Events Rain , Thunderstorm    
T = Trace of Precipitation, MM = Missing Value Source: NWS Daily Summary

Daily Weather History Graph

Daily Weather History Graph

Search for Another Location

Airport or City:

Trip Planner

Search our weather history database for the weather conditions in past years. The results will help you decide how hot, cold, wet, or windy it might be!

Date:

Astronomy

Jun. 28, 2013 Rise Set
Actual Time 5:40 AM CDT 7:47 PM CDT
Civil Twilight 5:12 AM CDT 8:15 PM CDT
Nautical Twilight 4:38 AM CDT 8:49 PM CDT
Astronomical Twilight 4:02 AM CDT 9:25 PM CDT
Moon 11:44 PM CDT (6/28) 11:21 AM CDT (6/28)
Length of Visible Light 15h 03m
Length of Day
14h 07m
Waning Gibbous, 66% of the Moon is Illuminated
Jun 28
Waning Gibbous
Jun 29
Last Quarter
Jul 8
New
Jul 15
First Quarter
Jul 22
Full

Hourly Weather History & Observations

Time (CDT) Temp. Heat Index Dew Point Humidity Pressure Visibility Wind Dir Wind Speed Gust Speed Precip Events Conditions
12:53 AM 81.0 °F 87.9 °F 77.0 °F 88% 29.91 in 10.0 mi SW 4.6 mph - N/A Thunderstorm Overcast
1:53 AM 80.1 °F 85.8 °F 77.0 °F 90% 29.90 in 10.0 mi SW 6.9 mph - 0.00 in Thunderstorm Partly Cloudy
2:15 AM 80.6 °F 87.1 °F 77.0 °F 89% 29.90 in 10.0 mi SSW 6.9 mph - N/A   Clear
2:53 AM 80.1 °F 85.8 °F 77.0 °F 90% 29.86 in 10.0 mi SW 8.1 mph - N/A Thunderstorm Thunderstorm
3:12 AM 80.6 °F 87.1 °F 77.0 °F 89% 29.87 in 10.0 mi SW 6.9 mph - N/A   Clear
3:53 AM 80.1 °F 85.8 °F 77.0 °F 90% 29.87 in 10.0 mi WSW 5.8 mph - N/A   Clear
4:53 AM 80.1 °F 86.4 °F 78.1 °F 94% 29.88 in 10.0 mi SW 5.8 mph - N/A   Partly Cloudy
5:43 AM 80.6 °F 88.1 °F 78.8 °F 94% 29.89 in 10.0 mi SW 5.8 mph - N/A Thunderstorm Mostly Cloudy
5:53 AM 80.1 °F 86.4 °F 78.1 °F 94% 29.88 in 10.0 mi SW 6.9 mph - N/A Thunderstorm Mostly Cloudy
6:29 AM 80.6 °F 88.1 °F 78.8 °F 94% 29.90 in 9.0 mi NE 9.2 mph - 0.00 in Rain , Thunderstorm Light Thunderstorms and Rain
6:37 AM 80.6 °F 88.1 °F 78.8 °F 94% 29.90 in 8.0 mi ENE 4.6 mph - 0.00 in Rain , Thunderstorm Light Rain
6:53 AM 80.1 °F 86.4 °F 78.1 °F 94% 29.89 in 10.0 mi West 4.6 mph - 0.00 in Thunderstorm Thunderstorm
7:19 AM 80.6 °F 88.1 °F 78.8 °F 94% 29.90 in 10.0 mi SSW 4.6 mph - N/A Thunderstorm Thunderstorm
7:53 AM 80.1 °F 86.4 °F 78.1 °F 94% 29.90 in 10.0 mi SW 5.8 mph - N/A   Overcast
8:53 AM 82.0 °F 91.6 °F 79.0 °F 90% 29.88 in 10.0 mi WSW 11.5 mph - N/A   Overcast
9:06 AM 82.4 °F 92.4 °F 78.8 °F 89% 29.89 in 10.0 mi WSW 8.1 mph - N/A   Overcast
9:29 AM 82.4 °F 92.4 °F 78.8 °F 89% 29.90 in 10.0 mi WSW 8.1 mph - N/A   Overcast
9:49 AM 84.2 °F 94.1 °F 77.0 °F 79% 29.90 in 10.0 mi SW 8.1 mph - N/A   Mostly Cloudy
9:53 AM 84.9 °F 95.3 °F 77.0 °F 77% 29.89 in 10.0 mi SW 9.2 mph - N/A   Mostly Cloudy
10:28 AM 86.0 °F 96.9 °F 77.0 °F 74% 29.89 in 10.0 mi WSW 10.4 mph - N/A Thunderstorm Scattered Clouds
10:43 AM 86.0 °F 95.1 °F 75.2 °F 70% 29.88 in 10.0 mi WSW 12.7 mph - N/A   Overcast
10:53 AM 84.0 °F 93.7 °F 77.0 °F 79% 29.87 in 7.0 mi WSW 17.3 mph - 0.02 in Rain Light Rain
11:00 AM 82.4 °F 89.5 °F 75.2 °F 79% 29.88 in 4.0 mi WSW 10.4 mph 19.6 mph 0.03 in Rain Rain
11:53 AM 87.1 °F 98.8 °F 77.0 °F 72% 29.87 in 10.0 mi SW 12.7 mph - 0.04 in   Scattered Clouds
12:53 PM 87.1 °F 96.3 °F 75.0 °F 67% 29.83 in 10.0 mi WSW 6.9 mph - N/A   Clear
1:53 PM 87.1 °F 97.3 °F 75.9 °F 69% 29.81 in 10.0 mi SSW 6.9 mph - N/A   Clear
2:53 PM 87.1 °F 97.3 °F 75.9 °F 69% 29.78 in 10.0 mi SSW 6.9 mph - N/A   Clear
3:44 PM 86.0 °F 95.1 °F 75.2 °F 70% 29.79 in 10.0 mi South 4.6 mph - N/A Thunderstorm Clear
3:53 PM 84.9 °F 94.1 °F 75.9 °F 74% 29.78 in 10.0 mi SSE 5.8 mph - N/A   Clear
4:40 PM 78.8 °F - 69.8 °F 74% 29.85 in 10.0 mi NW 26.5 mph 40.3 mph 0.01 in Rain , Thunderstorm Light Thunderstorms and Rain
4:50 PM 73.4 °F - 69.8 °F 88% 29.86 in 6.0 mi NNW 17.3 mph 31.1 mph 0.04 in Rain , Thunderstorm Heavy Thunderstorms and Rain
4:53 PM 73.0 °F - 70.0 °F 90% 29.86 in 6.0 mi NNW 13.8 mph 29.9 mph 0.04 in Rain , Thunderstorm Heavy Thunderstorms and Rain
5:21 PM 73.4 °F - 71.6 °F 94% 29.84 in 10.0 mi ENE 4.6 mph - 0.01 in Rain , Thunderstorm Light Thunderstorms and Rain
5:35 PM 73.4 °F - 71.6 °F 94% 29.84 in 10.0 mi ESE 5.8 mph - 0.01 in Rain Light Rain
5:45 PM 71.6 °F - 71.6 °F 100% 29.84 in 10.0 mi SSW 3.5 mph - 0.01 in Rain , Thunderstorm Light Rain
5:53 PM 72.0 °F - 71.1 °F 97% 29.84 in 10.0 mi SSW 5.8 mph - 0.01 in Rain , Thunderstorm Light Rain
6:37 PM 71.6 °F - 71.6 °F 100% 29.83 in 9.0 mi East 5.8 mph - 0.07 in Rain Light Rain
6:53 PM 72.0 °F - 71.1 °F 97% 29.81 in 10.0 mi East 4.6 mph - 0.07 in Rain Light Rain
7:53 PM 72.0 °F - 70.0 °F 93% 29.80 in 10.0 mi South 6.9 mph - 0.01 in   Partly Cloudy
8:31 PM 71.6 °F - 69.8 °F 94% 29.82 in 10.0 mi WSW 9.2 mph 17.3 mph 0.01 in   Partly Cloudy
8:53 PM 72.0 °F - 70.0 °F 93% 29.80 in 10.0 mi SSW 3.5 mph - 0.01 in   Clear
9:53 PM 72.0 °F - 71.1 °F 97% 29.80 in 10.0 mi South 4.6 mph - N/A   Clear
10:53 PM 72.0 °F - 70.0 °F 93% 29.79 in 10.0 mi SSW 4.6 mph - N/A   Clear
11:53 PM 72.0 °F - 70.0 °F 93% 29.81 in 10.0 mi WSW 3.5 mph - N/A   Clear